STARLINK-6348, 57360

Orbit data source: Space-Track

STARLINK-6348, 57360 is a payload satellite owned by SpaceX/Seattle (US) in LEO that was launched on Sun, 16 Jul 2023 UTC via an FALCON 9 launch vehicle from the Air Force Eastern Test Range (AFETR). Payload-class satellites include a variety of spacecraft equipped with specific instruments for various scientific and technological missions. These include communications satellites like Starlink; space stations such as the ISS; scientific satellites like the Hubble; Earth observation satellites from companies like Planet Labs, Umbra, and HawkEye 360; GPS; miniature CubeSats for education and research; and military/defense satellites.

Loading next visibility...
Identifier
57360, 2023-099AJ
Orbit
LEO
Country
Flag of USUS
Related business
Manufacturer
SpaceX/Seattle
Mission
Operational Commercial Communications
Bus & Motor
STARLINK, Unknown motor
Mass
305 kg wet, ~290 kg dry
Launch date (UTC)
2023-07-16 (3 years ago)
Launch vehicle
FALCON 9
Launch site
Air Force Eastern Test Range (AFETR)
Object type
Payload
Rocket body
Debris
Shape & HBR
Box + 1 Pan, 10.1 m
Radar Cross Section
11.087 m², Large (>1 m²)

Expand to show TLE details & history
Last TLE update: 2 days ago

TLE from 2 days ago
0 STARLINK-6348
1 57360U 23099AJ  26171.28485794 -.00000004  00000-0  93670-5 0  9993
2 57360  43.0042  21.9593 0001207 263.9514  96.1200 15.27578916161899
Epoch: 2026-06-20T06:50Z
TLE epoch observation values (Epoch: 2026-06-20T06:50:11.726Z)
Latitude
-0.00001°
Longitude
10.90875°
Altitude
482.917 km
Speed
7.626 km/s
True Right ascension
01h 27m 50s
True Declination
0° 00' 00"
Sunlit
Object was in daylight at epoch
Visualization orbit readout
Latitude
Unknown
Longitude
Unknown
Altitude
Unknown
Speed
Unknown
Apparent Right ascension
Unknown
Apparent Declination
Unknown
Sunlit
N/A
Visualization observer readout
Local Sidereal Time
21:25:24
Azimuth
Unknown
Elevation
Unknown
Doppler factor
Unknown
Orbital elements
Apogee altitude
485.825 km
Perigee altitude
484.168 km
Semi-major axis
6,863.134 km
Eccentricity
0.00012
Inclination
43.0042°
RAAN
21.9593°
Arg. of periapsis
263.9514°
True anomaly
96.13375°
Mean anomaly
96.12°
Eccentric anomaly
96.12688°
Mean motion
3.81733 °/min
Orbital period
94.31 mins
BSTAR
0.000009367
Loading maneuver chart data...
Computing Atmospheric mass density...
Loading historical data...
Loading historical data...
Loading historical data...
Loading historical data...
Loading historical data...
Loading historical data...
Loading historical data...

Documentation

Showing up to 5 results
|